Blue Canyon, CA

4:48 AM PDT on June 25, 2017 (GMT -0700)
Blue Canyon-Nyack

Weather History for KBLU - March, 2014

Change the Weather History Date:

Saturday, March 15, 2014

  Actual Average Record
Temperature  
Mean Temperature 54 °F -  
Max Temperature 64 °F 44 °F 70 °F (2007)
Min Temperature 46 °F 31 °F 19 °F (1958)
Degree Days  
Heating Degree Days 10    
Growing Degree Days 4 (Base 50)    
Moisture  
Dew Point 24 °F    
Average Humidity 31    
Maximum Humidity 45    
Minimum Humidity 20    
Precipitation  
Precipitation 0.00 in - - ()
Sea Level Pressure  
Sea Level Pressure 30.26 in    
Wind  
Wind Speed 7 mph (North)    
Max Wind Speed 10 mph    
Max Gust Speed 18 mph    
Visibility 10 miles    
Events      
Averages and records for this station are not official NWS values.
T = Trace of Precipitation, MM = Missing Value Source: NWS Daily Summary

Daily Weather History Graph

Daily Weather History Graph

Search for Another Location

Airport or City:

Trip Planner

Search our weather history database for the weather conditions in past years. The results will help you decide how hot, cold, wet, or windy it might be!

Date:

Astronomy

Mar. 15, 2014 Rise Set
Actual Time 7:14 AM PDT 7:09 PM PDT
Civil Twilight 6:47 AM PDT 7:36 PM PDT
Nautical Twilight 6:16 AM PDT 8:07 PM PDT
Astronomical Twilight 5:44 AM PDT 8:39 PM PDT
Moon 6:34 PM PDT (3/15) 6:28 AM PDT (3/15)
Length of Visible Light 12h 49m
Length of Day
11h 55m
Waxing Gibbous, 99% of the Moon is Illuminated
Mar 15
Waxing Gibbous
Mar 16
Full
Mar 23
Last Quarter
Mar 30
New
Apr 7
First Quarter

Hourly Weather History & Observations

Time (PDT) Temp. Windchill Dew Point Humidity Pressure Visibility Wind Dir Wind Speed Gust Speed Precip Events Conditions
12:52 AM 48.0 °F - 26.1 °F 42% 30.23 in 10.0 mi Variable 5.8 mph - N/A   Clear
1:52 AM 48.0 °F - 25.0 °F 41% 30.22 in 10.0 mi NE 10.4 mph 16.1 mph N/A   Clear
2:52 AM 46.9 °F - 23.0 °F 39% 30.22 in 10.0 mi Variable 6.9 mph - N/A   Clear
3:52 AM 48.0 °F - 19.0 °F 32% 30.22 in 10.0 mi Variable 6.9 mph 18.4 mph N/A   Clear
4:52 AM 46.0 °F 42.5 °F 19.9 °F 35% 30.22 in 10.0 mi Variable 6.9 mph - N/A   Clear
5:52 AM 48.0 °F - 19.0 °F 32% 30.23 in 10.0 mi ENE 8.1 mph 17.3 mph N/A   Clear
6:52 AM 48.0 °F - 18.0 °F 30% 30.24 in 10.0 mi ENE 8.1 mph - N/A   Clear
7:52 AM 48.9 °F - 16.0 °F 27% 30.26 in 10.0 mi NE 8.1 mph - N/A   Clear
8:52 AM 52.0 °F - 16.0 °F 24% 30.27 in 10.0 mi NE 6.9 mph - N/A   Clear
9:52 AM 55.9 °F - 16.0 °F 21% 30.27 in 10.0 mi ENE 4.6 mph - N/A   Clear
10:52 AM 57.0 °F - 24.1 °F 28% 30.27 in 10.0 mi West 6.9 mph - N/A   Clear
11:52 AM 60.1 °F - 19.9 °F 21% 30.28 in 10.0 mi Variable 4.6 mph - N/A   Clear
12:52 PM 61.0 °F - 19.9 °F 21% 30.27 in 10.0 mi West 5.8 mph - N/A   Clear
1:52 PM 63.0 °F - 21.0 °F 20% 30.25 in 10.0 mi West 8.1 mph - N/A   Clear
2:52 PM 63.0 °F - 21.9 °F 21% 30.25 in 10.0 mi West 8.1 mph - N/A   Clear
3:52 PM 63.0 °F - 27.0 °F 26% 30.25 in 10.0 mi West 6.9 mph - N/A   Clear
4:52 PM 62.1 °F - 28.9 °F 29% 30.26 in 10.0 mi Variable 5.8 mph - N/A   Clear
5:52 PM 61.0 °F - 30.9 °F 32% 30.26 in 10.0 mi Variable 4.6 mph - N/A   Clear
6:52 PM 57.9 °F - 34.0 °F 41% 30.28 in 10.0 mi WSW 3.5 mph - N/A   Clear
7:52 PM 55.9 °F - 34.0 °F 44% 30.28 in 10.0 mi North 3.5 mph - N/A   Clear
8:52 PM 55.9 °F - 35.1 °F 45% 30.29 in 10.0 mi NNE 4.6 mph - N/A   Clear
9:52 PM 55.0 °F - 33.1 °F 43% 30.29 in 10.0 mi NNE 5.8 mph - N/A   Clear
10:52 PM 55.9 °F - 27.0 °F 33% 30.29 in 10.0 mi NE 5.8 mph - N/A   Clear
11:52 PM 55.9 °F - 21.0 °F 26% 30.27 in 10.0 mi Variable 4.6 mph - N/A   Clear